Preview of NWS' New Version of Forecast
This preview is not operational and should not be used for support decisions.

Regional Weather Roundup (RWR)

Issued by National Weather Service (NWS)

                            
000
ASUS46 KPQR 190410
RWROR 

OREGON REGIONAL WEATHER ROUNDUP
NATIONAL WEATHER SERVICE PORTLAND OR
900 PM PDT TUE JUN 18 2019

NOTE: "FAIR" INDICATES FEW OR NO CLOUDS BELOW 12,000 FEET WITH
NO SIGNIFICANT WEATHER AND/OR OBSTRUCTIONS TO VISIBILITY.

ORZ001>013-190500-
NORTHWEST OREGON

  
CITY           SKY/WX    TMP DP  RH WIND       PRES   REMARKS
ASTORIA        MOCLDY    57  49  74 NW13      30.28S                  
TILLAMOOK      CLEAR     55  50  82 W15       30.29S                  
NEWPORT        CLEAR     54  50  87 N12G17    30.29S                  
PORTLAND       PTCLDY    62  46  55 NW12G21   30.23R                  
VANCOUVER WA   CLEAR     61  46  57 NW10      30.22R                  
SCAPPOOSE      CLEAR     59  45  59 NW7       30.22S                  
HILLSBORO      CLEAR     57  45  64 NW14      30.23S                  
AURORA         CLEAR     61  45  55 NW14      30.22R                  
MCMINNVILLE    CLEAR     60  46  59 N9        30.21R                  
SALEM          CLEAR     63  47  55 NW9       30.20R                  
CORVALLIS      CLEAR     62  48  60 NW14      30.20R                  
EUGENE         PTCLDY    66  51  58 N10       30.18R                  
$$

ORZ021-028-190500-
SOUTHWEST OREGON

  
CITY           SKY/WX    TMP DP  RH WIND       PRES   REMARKS
NORTH BEND     CLEAR     56  50  80 N21G28    30.25F                  
BROOKINGS      CLEAR     80  50  34 N8        30.03R                  
ROSEBURG       CLEAR     75  52  44 NW9       30.14R                  
SEXTON SUMMIT  CLEAR     60  43  53 N8        30.21R                  
GRANTS PASS    FAIR      77  43  29 NW13      30.13R                  
MEDFORD        CLEAR     78  37  22 NW10      30.09R                  
$$

ORZ014>016-041-190500-
COLUMBIA GORGE

  
CITY           SKY/WX    TMP DP  RH WIND       PRES   REMARKS
TROUTDALE      CLEAR     63  47  55 NW7       30.21R                  
HOOD RIVER     CLEAR     63  45  51 W6        30.13R                  
THE DALLES     CLEAR     68  43  40 NW25G32   30.06R                  
$$

ORZ029>031-041-044-049-050-061>064-502-503-505>511-190500-
EASTERN OREGON

  
CITY           SKY/WX    TMP DP  RH WIND       PRES   REMARKS
MADRAS           N/A     61  37  41 N10       30.15                   
REDMOND        CLEAR     67  34  29 NW7       30.14R                  
BEND           CLEAR     68  36  30 NW5       30.15R                  
PRINEVILLE     CLEAR     64  32  29 NW9       30.13S                  
KLAMATH FALLS  CLEAR     71  48  43 NW10      30.14R                  
LAKEVIEW       CLEAR     68  34  28 N8        30.15R                  
HERMISTON      PTCLDY    72  44  36 SW20G29   29.95S                  
PENDLETON      PTCLDY    69  42  37 W18       29.98S                  
JOHN DAY       CLEAR     68  37  31 W7        30.10S                  
MEACHAM        CLEAR     61  40  45 CALM      30.10S                  
LA GRANDE      CLEAR     64  44  48 N7        30.04F                  
BAKER CITY     CLEAR     66  41  40 VRB3      30.05R                  
BURNS          CLEAR     67  25  20 NW12      30.10S                  
ROME             N/A     74  26  16 N8        30.05R                  
ONTARIO        CLEAR     75  45  34 N8        29.95R                  
$$